[[{"header":{"parameterUnit":"m.s-1","parameterCategory":2,"la1":30.2991,"la2":30.254,"lo1":-89.0895,"lo2":-89.0444,"dy":0.0017,"dx":0.0017,"nx":28,"ny":28,"refTime":"2024-10-14T21:00:00:Z","depth":"0","parameterNumber":2,"parameterNumberName":"U-component_of_CURRENTS"},"data":[0,0,0,0,0,0,0,0,0,0,0,0,0,0,0,0,0,0,0,0,0,0,0,0,0,0,0,0,0,0,0,0,0,0,0,0,0,0,0,0,0,0,0,0,0,0,0,0,0,0,0,0,0,0,0,0,0,0,-0.2296,-0.2297,0,-0.23,-0.23,-0.23,-0.2281,-0.228,-0.228,-0.228,-0.2256,-0.2256,-0.2256,0,0,0,0,0,0,0,0,0,0,0,0,0,-0.225,-0.2251,-0.2296,-0.2297,-0.2297,-0.23,-0.23,-0.23,-0.2281,-0.228,-0.228,-0.228,-0.2256,-0.2256,-0.2256,0,0,0,0,0,0,0,0,0,0,0,0,0,-0.2261,-0.2251,-0.2296,-0.229,-0.229,-0.2301,-0.23,-0.23,-0.2281,-0.228,-0.228,-0.2279,-0.2257,-0.2256,-0.2256,-0.2261,0,0,-0.2254,-0.2254,0,0,0,0,0,0,0,0,-0.2261,-0.2263,-0.2291,-0.229,-0.229,-0.2292,-0.2276,-0.2287,-0.2281,-0.2281,-0.228,-0.2279,-0.2268,-0.2266,-0.2265,-0.226,-0.2259,-0.2254,-0.2254,-0.2253,-0.2253,0,0,0,0,0,0,0,-0.226,-0.2262,-0.2295,-0.2291,-0.2291,-0.228,-0.228,-0.2277,-0.2274,-0.2281,-0.228,-0.2285,-0.2267,-0.2265,-0.2264,-0.2259,-0.2254,-0.2253,-0.2253,-0.2253,-0.2255,-0.2255,0,0,0,0,0,0,-0.2267,-0.2262,-0.2295,-0.2296,-0.2277,-0.2281,-0.2282,-0.229,-0.2275,-0.2273,-0.2286,-0.2285,-0.2266,-0.2264,-0.2263,-0.227,-0.2253,-0.2253,-0.2253,-0.2254,-0.2255,-0.2255,0,0,0,0,0,0,-0.2266,-0.227,-0.2295,-0.2281,-0.2283,-0.2283,-0.2291,-0.229,-0.2289,-0.2279,-0.2276,-0.2287,-0.2266,-0.2264,-0.2261,-0.2269,-0.2253,-0.2252,-0.2254,-0.2254,-0.2255,-0.2285,0,0,0,0,0,0,-0.2265,-0.227,-0.2273,-0.2281,-0.2285,-0.2306,-0.2292,-0.229,-0.2294,-0.2293,-0.2279,-0.2277,-0.2265,-0.2261,-0.226,-0.2268,-0.2252,-0.2253,-0.2254,-0.2255,-0.2283,-0.2286,-0.2289,0,0,0,0,0,-0.2263,-0.2272,-0.2273,-0.2277,-0.2291,-0.2307,-0.2307,-0.2303,-0.2295,-0.2299,-0.2287,-0.2277,-0.2265,-0.2261,-0.226,-0.2268,-0.2253,-0.2254,-0.2255,-0.2282,-0.2286,-0.2289,0,0,0,0,0,0,-0.2252,-0.2272,-0.2273,-0.2287,-0.2298,-0.2305,-0.2307,-0.2307,-0.2301,-0.2296,-0.2282,-0.2279,-0.2279,-0.227,-0.2267,-0.227,-0.2257,-0.2258,-0.2279,-0.2282,-0.2285,-0.2293,-0.2251,0,0,0,0,0,-0.2254,-0.2263,-0.2282,-0.2291,-0.2299,-0.2303,-0.2307,-0.2309,-0.2308,-0.2305,-0.2296,-0.2286,-0.2282,-0.2279,-0.2273,-0.2276,-0.2278,-0.228,-0.2283,-0.2285,-0.2291,-0.2296,-0.2299,-0.2258,-0.2258,-0.2258,0,0,-0.225,-0.2263,-0.2267,-0.2289,-0.2294,-0.2312,-0.2304,-0.2315,-0.2326,-0.2304,-0.2307,-0.2296,-0.2285,-0.2287,-0.2286,-0.228,-0.23,-0.2286,-0.2288,-0.2292,-0.2297,-0.2301,-0.2305,-0.2258,-0.2258,-0.2258,0,0,-0.2253,-0.2263,-0.2273,-0.2289,-0.2307,-0.2315,-0.2322,-0.2333,-0.2333,-0.2339,-0.2325,-0.2321,-0.2312,-0.2309,-0.2305,-0.232,-0.2315,-0.2316,-0.2337,-0.2341,-0.2345,-0.2348,-0.2369,-0.2373,-0.2317,-0.2317,-0.2317,0,-0.2247,-0.2266,-0.2278,-0.2298,-0.2311,-0.232,-0.2339,-0.2346,-0.2353,-0.2357,-0.2343,-0.2338,-0.2325,-0.2335,-0.2335,-0.2328,-0.2333,-0.2325,-0.2346,-0.2349,-0.2351,-0.2371,-0.2376,-0.2319,-0.2318,-0.2318,-0.2318,0,-0.226,-0.2278,-0.2287,-0.2315,-0.2332,-0.2349,-0.237,-0.2382,-0.2381,-0.2386,-0.2393,-0.2376,-0.2372,-0.2368,-0.2353,-0.2368,-0.2367,-0.2349,-0.2339,-0.2357,-0.2377,-0.2382,-0.2321,-0.232,-0.232,-0.2319,0,0,-0.2236,-0.2287,-0.2288,-0.2307,-0.2344,-0.2359,-0.2387,-0.2413,-0.2432,-0.2428,-0.2448,-0.2432,-0.2421,-0.2416,-0.2401,-0.2402,-0.2424,-0.2383,-0.2383,-0.2407,-0.2448,-0.2492,-0.2501,-0.2407,-0.2407,-0.2408,-0.2459,0,-0.2239,-0.2275,-0.2302,-0.2337,-0.2358,-0.2388,-0.2416,-0.2441,-0.2455,-0.2477,-0.2468,-0.2474,-0.2441,-0.2438,-0.2435,-0.2425,-0.2435,-0.2413,-0.2423,-0.2424,-0.2463,-0.2507,-0.2511,-0.2561,-0.2463,-0.2464,-0.2465,0,-0.2237,-0.2263,-0.2297,-0.2354,-0.2367,-0.2389,-0.2436,-0.2463,-0.2502,-0.2514,-0.2522,-0.2519,-0.2522,-0.2489,-0.249,-0.2476,-0.2466,-0.2459,-0.246,-0.2494,-0.2476,-0.2523,-0.2573,-0.2559,-0.2471,-0.2471,-0.247,0,-0.2202,-0.2258,-0.2283,-0.2301,-0.2367,-0.2386,-0.2415,-0.2463,-0.2492,-0.2532,-0.2558,-0.2562,-0.2568,-0.2551,-0.2542,-0.251,-0.2557,-0.2509,-0.2547,-0.255,-0.2554,-0.2557,-0.2594,-0.2519,-0.2519,-0.2519,-0.2519,0,-0.2191,-0.2209,-0.2267,-0.228,-0.2312,-0.2365,-0.2402,-0.2439,-0.2497,-0.2541,-0.2563,-0.2599,-0.2582,-0.2607,-0.2577,-0.2597,-0.2586,-0.257,-0.2571,-0.2566,-0.257,-0.2557,-0.2547,-0.2521,-0.2521,-0.252,-0.252,0,-0.2142,-0.2185,-0.2213,-0.2275,-0.2295,-0.2309,-0.2382,-0.2414,-0.248,-0.254,-0.2555,-0.2627,-0.2664,-0.2673,-0.2672,-0.2656,-0.2642,-0.267,-0.2681,-0.2683,-0.2684,-0.2676,-0.2662,-0.26,-0.2705,-0.2707,-0.2708,0,-0.2119,-0.2128,-0.2185,-0.2198,-0.2222,-0.226,-0.2293,-0.2379,-0.2422,-0.2556,-0.2582,-0.2665,-0.2727,-0.2779,-0.2786,-0.2793,-0.2705,-0.278,-0.2716,-0.2711,-0.2701,-0.2624,-0.2564,-0.2733,-0.2734,-0.2736,-0.2736,0,-0.2059,-0.2076,-0.2096,-0.2127,-0.2156,-0.2198,-0.2253,-0.2298,-0.2416,-0.2504,-0.2622,-0.2695,-0.2803,-0.286,-0.2904,-0.2867,-0.274,-0.2803,-0.2785,-0.2732,-0.2661,-0.2593,-0.2682,-0.2746,-0.2745,-0.2745,-0.2744,-0.2744,-0.1995,-0.199,-0.2014,-0.2037,-0.2077,-0.2118,-0.2126,-0.2243,-0.2338,-0.2504,-0.2617,-0.2806,-0.2907,-0.2985,-0.2965,-0.2939,-0.2828,-0.2841,-0.2835,-0.2758,-0.2691,-0.2823,-0.2895,-0.2895,-0.2895,-0.2895,-0.2894,0,-0.1903,-0.191,-0.1925,-0.1951,-0.1958,-0.2009,-0.2083,-0.2107,-0.2217,-0.2495,-0.2646,-0.2986,-0.3034,-0.3096,-0.3118,-0.3021,-0.2874,-0.2893,-0.2773,-0.2707,-0.2829,-0.2825,-0.2901,-0.2901,-0.2901,-0.2901,-0.2901,-0.2901,-0.1853,-0.1828,-0.184,-0.1817,-0.1836,-0.1818,-0.1837,-0.1928,-0.2099,-0.245,-0.28,-0.3096,-0.3142,-0.3319,-0.3215,-0.3064,-0.2899,-0.2814,-0.2733,-0.2837,-0.283,-0.2823,-0.2816,-0.289,-0.289,-0.2548,-0.2546,-0.2544]},{"header":{"parameterUnit":"m.s-1","parameterCategory":2,"la1":30.2991,"la2":30.254,"lo1":-89.0895,"lo2":-89.0444,"dy":0.0017,"dx":0.0017,"nx":28,"ny":28,"refTime":"2024-10-14T21:00:00:Z","depth":"0","parameterNumber":3,"parameterNumberName":"V-component_of_CURRENTS"},"data":[0,0,0,0,0,0,0,0,0,0,0,0,0,0,0,0,0,0,0,0,0,0,0,0,0,0,0,0,0,0,0,0,0,0,0,0,0,0,0,0,0,0,0,0,0,0,0,0,0,0,0,0,0,0,0,0,0,0,-0.043,-0.0429,0,-0.0347,-0.0346,-0.0345,-0.03,-0.03,-0.03,-0.03,-0.0207,-0.0205,-0.0202,0,0,0,0,0,0,0,0,0,0,0,0,0,-0.0511,-0.051,-0.043,-0.0429,-0.0428,-0.0347,-0.0346,-0.0345,-0.03,-0.03,-0.03,-0.0299,-0.0208,-0.0205,-0.0202,0,0,0,0,0,0,0,0,0,0,0,0,0,-0.0457,-0.051,-0.043,-0.0395,-0.0391,-0.0347,-0.0346,-0.0345,-0.03,-0.03,-0.03,-0.0299,-0.0209,-0.0205,-0.0202,-0.0184,0,0,-0.0191,-0.019,0,0,0,0,0,0,0,0,-0.0461,-0.0455,-0.0402,-0.0398,-0.0393,-0.0333,-0.0341,-0.029,-0.03,-0.0335,-0.03,-0.0299,-0.0248,-0.0242,-0.0227,-0.018,-0.0176,-0.0191,-0.0189,-0.0187,-0.0186,0,0,0,0,0,0,0,-0.0464,-0.0458,-0.0397,-0.04,-0.0395,-0.0371,-0.0364,-0.0331,-0.0294,-0.0332,-0.0328,-0.0319,-0.0246,-0.023,-0.0224,-0.0175,-0.0191,-0.0188,-0.0186,-0.0184,-0.0103,-0.0103,0,0,0,0,0,0,-0.0476,-0.0461,-0.04,-0.0395,-0.0427,-0.037,-0.0361,-0.0353,-0.0294,-0.0285,-0.0319,-0.0317,-0.0237,-0.0229,-0.0221,-0.0193,-0.0187,-0.0184,-0.0182,-0.0103,-0.0103,-0.0103,0,0,0,0,0,0,-0.0478,-0.0471,-0.0403,-0.0426,-0.0415,-0.0369,-0.036,-0.0351,-0.0335,-0.0285,-0.0275,-0.0312,-0.0236,-0.0226,-0.0192,-0.0189,-0.0182,-0.0179,-0.0103,-0.0103,-0.0103,-0.0139,0,0,0,0,0,0,-0.0481,-0.0473,-0.0473,-0.0427,-0.0415,-0.0381,-0.0359,-0.035,-0.033,-0.0326,-0.0275,-0.0266,-0.0235,-0.0197,-0.0188,-0.0184,-0.0176,-0.0103,-0.0103,-0.0103,-0.0138,-0.014,-0.0142,0,0,0,0,0,-0.0484,-0.0486,-0.0474,-0.0466,-0.0416,-0.0381,-0.0373,-0.0339,-0.033,-0.0324,-0.0289,-0.0268,-0.019,-0.0194,-0.0184,-0.0179,-0.0103,-0.0103,-0.0103,-0.0137,-0.014,-0.0142,0,0,0,0,0,0,-0.0522,-0.048,-0.0466,-0.0455,-0.0422,-0.0373,-0.0366,-0.0343,-0.0311,-0.0309,-0.0264,-0.0252,-0.0222,-0.0197,-0.0202,-0.0156,-0.0145,-0.0142,-0.0174,-0.0176,-0.0178,-0.0188,-0.0174,0,0,0,0,0,-0.0531,-0.0522,-0.0477,-0.047,-0.0456,-0.0413,-0.0396,-0.0372,-0.0336,-0.0321,-0.0284,-0.0247,-0.0214,-0.0193,-0.0161,-0.0133,-0.0111,-0.0124,-0.0126,-0.0128,-0.0129,-0.0096,-0.0095,-0.0103,-0.0103,-0.0103,0,0,-0.0546,-0.0521,-0.0516,-0.0477,-0.0451,-0.0434,-0.0402,-0.0379,-0.0362,-0.0317,-0.0287,-0.0254,-0.0209,-0.0178,-0.0163,-0.0156,-0.0115,-0.0128,-0.013,-0.013,-0.0096,-0.0095,-0.0094,-0.0103,-0.0103,-0.0103,0,0,-0.0569,-0.0547,-0.0546,-0.0521,-0.0484,-0.0454,-0.045,-0.0402,-0.0378,-0.0345,-0.031,-0.0276,-0.0224,-0.0189,-0.0165,-0.016,-0.0129,-0.0151,-0.0165,-0.0133,-0.0132,-0.0131,-0.0105,-0.0101,-0.015,-0.015,-0.015,0,-0.0589,-0.0579,-0.0541,-0.0532,-0.0517,-0.0467,-0.0462,-0.0428,-0.0375,-0.0355,-0.0343,-0.0264,-0.0228,-0.0184,-0.0182,-0.0164,-0.0144,-0.0159,-0.0136,-0.0134,-0.0133,-0.0106,-0.0102,-0.0152,-0.0151,-0.0151,-0.0151,0,-0.0608,-0.06,-0.0598,-0.057,-0.0548,-0.0536,-0.0485,-0.046,-0.0429,-0.039,-0.0343,-0.029,-0.0243,-0.0226,-0.02,-0.0168,-0.0158,-0.0145,-0.0132,-0.0134,-0.0106,-0.0101,-0.0154,-0.0153,-0.0153,-0.0152,0,0,-0.0652,-0.062,-0.0619,-0.0618,-0.0569,-0.0555,-0.0524,-0.0481,-0.0464,-0.0406,-0.0378,-0.0313,-0.0281,-0.0253,-0.0213,-0.0181,-0.0152,-0.0162,-0.0159,-0.014,-0.0086,-0.0038,-0.0027,-0.0137,-0.0136,-0.0135,-0.0072,0,-0.068,-0.0686,-0.0652,-0.0654,-0.0654,-0.0599,-0.0577,-0.053,-0.0481,-0.044,-0.0371,-0.0332,-0.0291,-0.0273,-0.0231,-0.017,-0.014,-0.0171,-0.0082,-0.0079,-0.004,-0.0019,-0.002,0.004,-0.0067,-0.0066,-0.0065,0,-0.0708,-0.071,-0.0722,-0.0703,-0.0697,-0.0687,-0.0646,-0.0617,-0.0539,-0.0502,-0.0439,-0.0382,-0.0312,-0.0289,-0.018,-0.0202,-0.015,-0.0105,-0.0101,-0.0039,-0.0021,0.0027,0.0054,0.0171,-0.0057,-0.0058,-0.0058,0,-0.0767,-0.0757,-0.0774,-0.0766,-0.0735,-0.0729,-0.0706,-0.0641,-0.0621,-0.054,-0.0519,-0.0419,-0.0377,-0.0289,-0.0174,-0.0182,-0.0058,-0.0058,0.0032,0.0036,0.0063,0.0068,0.0211,0.0005,0.0004,0.0004,0.0004,0,-0.081,-0.0821,-0.0807,-0.0816,-0.0839,-0.0789,-0.0791,-0.0748,-0.0691,-0.0676,-0.0561,-0.0525,-0.0377,-0.0278,-0.0183,-0.0043,-0.006,0.0038,0.0061,0.0051,0.0054,0.0179,0.0239,0.0007,0.0006,0.0006,0.0005,0,-0.0866,-0.0854,-0.0878,-0.0867,-0.0868,-0.0884,-0.0862,-0.0862,-0.0792,-0.0767,-0.0746,-0.0606,-0.047,-0.0311,-0.016,-0.0058,0.0137,0.0114,0.0095,0.0116,0.0308,0.0365,0.0538,0.055,0.022,0.0221,0.0223,0,-0.0892,-0.0911,-0.0932,-0.0959,-0.0958,-0.0971,-0.0985,-0.0926,-0.0921,-0.0819,-0.0817,-0.0668,-0.0569,-0.0296,-0.0079,0.012,0.0194,0.0234,0.0223,0.0334,0.0415,0.0449,0.0447,0.0238,0.0239,0.024,0.0241,0,-0.0944,-0.0953,-0.0977,-0.1046,-0.1076,-0.1105,-0.1113,-0.1126,-0.1054,-0.1023,-0.0949,-0.0856,-0.0553,-0.0297,0.0005,0.0121,0.0316,0.0264,0.0384,0.0455,0.0497,0.0513,0.0176,0.0251,0.025,0.025,0.0249,0.0249,-0.098,-0.1022,-0.1069,-0.1134,-0.118,-0.1236,-0.1275,-0.1275,-0.1279,-0.1235,-0.1086,-0.0926,-0.0477,-0.0043,0.0101,0.0445,0.0407,0.0518,0.058,0.0606,0.0624,0.0316,0.0418,0.0418,0.0418,0.0418,0.0418,0,-0.1027,-0.1082,-0.1154,-0.1237,-0.1319,-0.1313,-0.1363,-0.1408,-0.1444,-0.134,-0.1255,-0.0741,-0.0338,0.0079,0.0614,0.0773,0.0749,0.0832,0.0871,0.085,0.0585,0.0592,0.073,0.073,0.073,0.073,0.073,0.0729,-0.1053,-0.114,-0.119,-0.1347,-0.1409,-0.1514,-0.1554,-0.1607,-0.1564,-0.1416,-0.1137,-0.0904,-0.0169,0.0738,0.1164,0.115,0.1206,0.1194,0.1232,0.1059,0.1033,0.1008,0.103,0.1258,0.1258,0.1431,0.1434,0.1436]}],[{"header":{"parameterUnit":"m.s-1","parameterCategory":2,"la1":30.2991,"la2":30.254,"lo1":-89.0895,"lo2":-89.0444,"dy":0.0017,"dx":0.0017,"nx":28,"ny":28,"refTime":"2024-10-14T21:00:00:Z","depth":"2","parameterNumber":2,"parameterNumberName":"U-component_of_CURRENTS"},"data":[0,0,0,0,0,0,0,0,0,0,0,0,0,0,0,0,0,0,0,0,0,0,0,0,0,0,0,0,0,0,0,0,0,0,0,0,0,0,0,0,0,0,0,0,0,0,0,0,0,0,0,0,0,0,0,0,0,0,-0.2255,-0.2256,0,-0.2259,-0.2259,-0.2259,-0.2241,-0.2241,-0.224,-0.224,-0.2217,-0.2217,-0.2217,0,0,0,0,0,0,0,0,0,0,0,0,0,-0.221,-0.221,-0.2255,-0.2256,-0.2256,-0.2259,-0.2259,-0.2259,-0.2241,-0.2241,-0.224,-0.224,-0.2217,-0.2217,-0.2217,0,0,0,0,0,0,0,0,0,0,0,0,0,-0.222,-0.2211,-0.2255,-0.2249,-0.2249,-0.2259,-0.2259,-0.2259,-0.2241,-0.2241,-0.224,-0.224,-0.2218,-0.2217,-0.2217,-0.2221,0,0,-0.2215,-0.2215,0,0,0,0,0,0,0,0,-0.222,-0.2222,-0.225,-0.225,-0.225,-0.2252,-0.2235,-0.2246,-0.2241,-0.2241,-0.224,-0.224,-0.2229,-0.2227,-0.2225,-0.222,-0.2219,-0.2215,-0.2215,-0.2214,-0.2214,0,0,0,0,0,0,0,-0.2219,-0.2221,-0.2254,-0.225,-0.225,-0.2239,-0.224,-0.2237,-0.2234,-0.2241,-0.224,-0.2246,-0.2228,-0.2226,-0.2224,-0.2219,-0.2215,-0.2214,-0.2214,-0.2214,-0.2215,-0.2216,0,0,0,0,0,0,-0.2226,-0.2221,-0.2254,-0.2254,-0.2237,-0.2241,-0.2242,-0.2249,-0.2235,-0.2233,-0.2246,-0.2245,-0.2227,-0.2225,-0.2223,-0.2232,-0.2214,-0.2214,-0.2213,-0.2215,-0.2215,-0.2216,0,0,0,0,0,0,-0.2225,-0.2229,-0.2254,-0.224,-0.2242,-0.2242,-0.2251,-0.225,-0.2249,-0.2239,-0.2237,-0.2248,-0.2226,-0.2224,-0.2221,-0.223,-0.2214,-0.2213,-0.2215,-0.2215,-0.2216,-0.2246,0,0,0,0,0,0,-0.2224,-0.2229,-0.2232,-0.224,-0.2244,-0.2265,-0.2251,-0.225,-0.2254,-0.2253,-0.224,-0.2237,-0.2226,-0.2222,-0.2221,-0.2229,-0.2213,-0.2214,-0.2215,-0.2215,-0.2244,-0.2247,-0.225,0,0,0,0,0,-0.2222,-0.2232,-0.2233,-0.2236,-0.225,-0.2266,-0.2266,-0.2262,-0.2255,-0.2259,-0.2247,-0.2238,-0.2225,-0.2222,-0.222,-0.2229,-0.2214,-0.2215,-0.2215,-0.2243,-0.2247,-0.225,0,0,0,0,0,0,-0.2212,-0.2231,-0.2232,-0.2246,-0.2258,-0.2264,-0.2266,-0.2266,-0.2261,-0.2256,-0.2242,-0.2239,-0.224,-0.2231,-0.2228,-0.2231,-0.2218,-0.2219,-0.224,-0.2243,-0.2246,-0.2254,-0.2212,0,0,0,0,0,-0.2213,-0.2223,-0.2242,-0.225,-0.2259,-0.2263,-0.2267,-0.2269,-0.2268,-0.2265,-0.2257,-0.2247,-0.2243,-0.224,-0.2234,-0.2237,-0.2238,-0.2241,-0.2244,-0.2246,-0.2252,-0.2257,-0.2261,-0.2219,-0.2219,-0.2219,0,0,-0.221,-0.2222,-0.2227,-0.2248,-0.2254,-0.2272,-0.2264,-0.2275,-0.2286,-0.2264,-0.2268,-0.2257,-0.2246,-0.2248,-0.2248,-0.2241,-0.2262,-0.2247,-0.2249,-0.2254,-0.2258,-0.2262,-0.2266,-0.2219,-0.2219,-0.2219,0,0,-0.2213,-0.2223,-0.2233,-0.2249,-0.2267,-0.2275,-0.2282,-0.2293,-0.2294,-0.23,-0.2286,-0.2282,-0.2274,-0.227,-0.2266,-0.2282,-0.2276,-0.2278,-0.2298,-0.2303,-0.2307,-0.231,-0.2331,-0.2335,-0.2279,-0.2279,-0.2279,0,-0.2208,-0.2226,-0.2238,-0.2257,-0.2271,-0.228,-0.2298,-0.2306,-0.2313,-0.2318,-0.2304,-0.2299,-0.2286,-0.2296,-0.2296,-0.2289,-0.2294,-0.2287,-0.2308,-0.2311,-0.2313,-0.2333,-0.2338,-0.228,-0.228,-0.228,-0.228,0,-0.222,-0.2238,-0.2247,-0.2275,-0.2292,-0.2309,-0.233,-0.2342,-0.2341,-0.2347,-0.2354,-0.2337,-0.2334,-0.233,-0.2315,-0.233,-0.2329,-0.2311,-0.23,-0.2319,-0.2339,-0.2344,-0.2283,-0.2282,-0.2282,-0.2281,0,0,-0.2197,-0.2246,-0.2248,-0.2267,-0.2303,-0.2318,-0.2346,-0.2372,-0.2392,-0.2388,-0.2408,-0.2393,-0.2383,-0.2378,-0.2363,-0.2364,-0.2386,-0.2345,-0.2345,-0.2369,-0.241,-0.2452,-0.2461,-0.2369,-0.237,-0.237,-0.2421,0,-0.22,-0.2235,-0.2262,-0.2296,-0.2317,-0.2347,-0.2375,-0.24,-0.2414,-0.2436,-0.2428,-0.2434,-0.2403,-0.24,-0.2397,-0.2387,-0.2397,-0.2375,-0.2386,-0.2387,-0.2424,-0.2467,-0.2197,-0.2224,-0.2426,-0.2426,-0.2427,0,-0.2197,-0.2223,-0.2257,-0.2313,-0.2326,-0.2348,-0.2395,-0.2422,-0.2461,-0.2473,-0.2482,-0.2479,-0.2483,-0.2451,-0.2452,-0.2438,-0.2428,-0.2421,-0.2423,-0.2455,-0.2437,-0.2234,-0.2224,-0.2434,-0.2434,-0.2433,-0.2433,0,-0.2163,-0.2219,-0.2243,-0.2261,-0.2326,-0.2345,-0.2374,-0.2422,-0.2451,-0.2492,-0.2517,-0.2522,-0.2529,-0.2513,-0.2504,-0.2473,-0.2519,-0.2472,-0.2508,-0.2511,-0.2281,-0.2264,-0.2482,-0.2482,-0.2482,-0.2482,-0.2482,0,-0.2152,-0.217,-0.2227,-0.224,-0.2272,-0.2325,-0.2362,-0.2399,-0.2457,-0.25,-0.2523,-0.2559,-0.2543,-0.2568,-0.2539,-0.2558,-0.2547,-0.2531,-0.2532,-0.2288,-0.2272,-0.2446,-0.2441,-0.2484,-0.2483,-0.2483,-0.2483,0,-0.2104,-0.2146,-0.2173,-0.2236,-0.2255,-0.227,-0.2343,-0.2375,-0.2441,-0.25,-0.2515,-0.2587,-0.2624,-0.2633,-0.2633,-0.2617,-0.262,-0.263,-0.2367,-0.2338,-0.2595,-0.2591,-0.266,-0.2662,-0.2664,-0.2665,-0.2666,0,-0.2081,-0.2089,-0.2146,-0.216,-0.2183,-0.2222,-0.2255,-0.234,-0.2382,-0.2516,-0.2542,-0.2624,-0.2674,-0.2726,-0.2664,-0.2652,-0.2691,-0.2452,-0.235,-0.2622,-0.2616,-0.2609,-0.2603,-0.2045,-0.2041,-0.2037,-0.2035,0,-0.2022,-0.2039,-0.2059,-0.2089,-0.2119,-0.216,-0.2215,-0.2259,-0.2376,-0.2453,-0.2569,-0.2631,-0.2674,-0.2557,-0.2573,-0.2512,-0.2431,-0.2394,-0.2714,-0.2078,-0.2056,-0.2046,-0.2056,-0.2006,-0.2009,-0.2011,-0.2012,-0.2013,-0.1958,-0.1953,-0.1977,-0.2001,-0.204,-0.208,-0.2088,-0.2168,-0.2248,-0.2327,-0.2475,-0.2491,-0.2461,-0.2358,-0.2272,-0.2185,-0.2341,-0.2209,-0.2211,-0.2219,-0.2175,-0.2161,-0.2123,-0.2126,-0.2129,-0.2132,-0.2134,0,-0.1854,-0.1874,-0.1889,-0.1914,-0.1907,-0.1973,-0.2045,-0.2015,-0.2066,-0.2176,-0.2245,-0.2057,-0.2009,-0.1997,-0.1816,-0.1826,-0.1707,-0.1755,-0.156,-0.1591,-0.1618,-0.1536,-0.1318,-0.1316,-0.1314,-0.1312,0,0,-0.1801,-0.177,-0.1782,-0.1752,-0.1783,-0.1739,-0.1757,-0.1744,-0.1771,-0.1767,-0.1784,-0.1925,-0.1973,-0.1651,-0.1563,-0.1428,-0.1491,-0.1354,-0.2001,-0.1801,-0.1826,-0.1869,-0.178,0,0,0,0,0]},{"header":{"parameterUnit":"m.s-1","parameterCategory":2,"la1":30.2991,"la2":30.254,"lo1":-89.0895,"lo2":-89.0444,"dy":0.0017,"dx":0.0017,"nx":28,"ny":28,"refTime":"2024-10-14T21:00:00:Z","depth":"2","parameterNumber":3,"parameterNumberName":"V-component_of_CURRENTS"},"data":[0,0,0,0,0,0,0,0,0,0,0,0,0,0,0,0,0,0,0,0,0,0,0,0,0,0,0,0,0,0,0,0,0,0,0,0,0,0,0,0,0,0,0,0,0,0,0,0,0,0,0,0,0,0,0,0,0,0,-0.0382,-0.0381,0,-0.03,-0.0299,-0.0298,-0.0254,-0.0254,-0.0254,-0.0254,-0.0162,-0.0159,-0.0157,0,0,0,0,0,0,0,0,0,0,0,0,0,-0.0463,-0.0462,-0.0382,-0.0381,-0.038,-0.03,-0.0299,-0.0298,-0.0254,-0.0254,-0.0254,-0.0254,-0.0162,-0.016,-0.0157,0,0,0,0,0,0,0,0,0,0,0,0,0,-0.041,-0.0462,-0.0382,-0.0348,-0.0345,-0.03,-0.0299,-0.0298,-0.0254,-0.0254,-0.0254,-0.0253,-0.0163,-0.016,-0.0156,-0.0138,0,0,-0.0146,-0.0144,0,0,0,0,0,0,0,0,-0.0413,-0.0407,-0.0354,-0.0351,-0.0346,-0.0287,-0.0294,-0.0244,-0.0254,-0.0289,-0.0254,-0.0253,-0.0203,-0.0196,-0.0181,-0.0134,-0.013,-0.0145,-0.0143,-0.0142,-0.0141,0,0,0,0,0,0,0,-0.0417,-0.041,-0.035,-0.0353,-0.0348,-0.0324,-0.0317,-0.0284,-0.0248,-0.0286,-0.0282,-0.0273,-0.02,-0.0185,-0.0179,-0.0129,-0.0145,-0.0142,-0.014,-0.0139,-0.0058,-0.0058,0,0,0,0,0,0,-0.0428,-0.0413,-0.0353,-0.0347,-0.0379,-0.0323,-0.0315,-0.0306,-0.0248,-0.0239,-0.0273,-0.0271,-0.0191,-0.0183,-0.0175,-0.0148,-0.0142,-0.0138,-0.0136,-0.0058,-0.0058,-0.0058,0,0,0,0,0,0,-0.043,-0.0424,-0.0356,-0.0378,-0.0368,-0.0322,-0.0313,-0.0305,-0.0289,-0.0238,-0.0229,-0.0266,-0.019,-0.018,-0.0146,-0.0144,-0.0137,-0.0134,-0.0058,-0.0058,-0.0058,-0.0094,0,0,0,0,0,0,-0.0433,-0.0425,-0.0426,-0.0379,-0.0367,-0.0334,-0.0313,-0.0303,-0.0284,-0.028,-0.0229,-0.0221,-0.0189,-0.0152,-0.0143,-0.0139,-0.0131,-0.0058,-0.0058,-0.0058,-0.0093,-0.0095,-0.0097,0,0,0,0,0,-0.0436,-0.0438,-0.0426,-0.0419,-0.0369,-0.0334,-0.0325,-0.0292,-0.0284,-0.0278,-0.0243,-0.0222,-0.0145,-0.0149,-0.0138,-0.0133,-0.0058,-0.0058,-0.0058,-0.0092,-0.0095,-0.0097,0,0,0,0,0,0,-0.0474,-0.0432,-0.0418,-0.0408,-0.0375,-0.0326,-0.0319,-0.0297,-0.0265,-0.0263,-0.0218,-0.0207,-0.0177,-0.0151,-0.0157,-0.011,-0.0099,-0.0097,-0.0129,-0.0131,-0.0133,-0.0143,-0.0128,0,0,0,0,0,-0.0484,-0.0474,-0.0429,-0.0422,-0.0408,-0.0366,-0.0349,-0.0326,-0.029,-0.0276,-0.0239,-0.0202,-0.0168,-0.0148,-0.0115,-0.0088,-0.0065,-0.0079,-0.0081,-0.0083,-0.0084,-0.0051,-0.005,-0.0057,-0.0057,-0.0057,0,0,-0.0498,-0.0473,-0.0468,-0.043,-0.0404,-0.0387,-0.0355,-0.0333,-0.0316,-0.0271,-0.0242,-0.0208,-0.0163,-0.0133,-0.0117,-0.011,-0.0069,-0.0083,-0.0085,-0.0085,-0.005,-0.005,-0.0049,-0.0057,-0.0057,-0.0057,0,0,-0.0521,-0.0499,-0.0499,-0.0474,-0.0437,-0.0407,-0.0403,-0.0356,-0.0333,-0.03,-0.0265,-0.0231,-0.0179,-0.0144,-0.012,-0.0115,-0.0084,-0.0107,-0.012,-0.0088,-0.0087,-0.0086,-0.0061,-0.0057,-0.0105,-0.0105,-0.0105,0,-0.0541,-0.0532,-0.0494,-0.0485,-0.047,-0.042,-0.0416,-0.0382,-0.0329,-0.031,-0.0298,-0.0219,-0.0183,-0.014,-0.0138,-0.0119,-0.0099,-0.0115,-0.0091,-0.009,-0.0088,-0.0062,-0.0057,-0.0107,-0.0107,-0.0107,-0.0107,0,-0.056,-0.0553,-0.0551,-0.0523,-0.0501,-0.049,-0.0439,-0.0415,-0.0383,-0.0345,-0.0298,-0.0245,-0.0199,-0.0182,-0.0156,-0.0124,-0.0114,-0.0101,-0.0087,-0.009,-0.0062,-0.0057,-0.011,-0.0109,-0.0108,-0.0108,0,0,-0.0605,-0.0573,-0.0572,-0.0571,-0.0522,-0.0509,-0.0478,-0.0435,-0.0418,-0.036,-0.0333,-0.0268,-0.0237,-0.0209,-0.0169,-0.0137,-0.0109,-0.0118,-0.0115,-0.0097,-0.0042,0.0005,0.0015,-0.0093,-0.0092,-0.0091,-0.0029,0,-0.0633,-0.0639,-0.0605,-0.0607,-0.0607,-0.0552,-0.053,-0.0484,-0.0436,-0.0395,-0.0326,-0.0287,-0.0247,-0.0229,-0.0187,-0.0126,-0.0096,-0.0127,-0.0038,-0.0035,0.0003,0.0023,0.0018,0.0077,-0.0023,-0.0022,-0.0022,0,-0.0661,-0.0662,-0.0675,-0.0656,-0.065,-0.064,-0.06,-0.0571,-0.0493,-0.0457,-0.0394,-0.0337,-0.0268,-0.0245,-0.0136,-0.0158,-0.0107,-0.0061,-0.0057,0.0003,0.0022,0.0066,0.0091,-0.0012,-0.0013,-0.0014,-0.0014,0,-0.0719,-0.071,-0.0727,-0.072,-0.0688,-0.0682,-0.066,-0.0595,-0.0575,-0.0495,-0.0474,-0.0374,-0.0332,-0.0244,-0.013,-0.0138,-0.0014,-0.0014,0.0075,0.0078,0.0102,0.0107,0.0049,0.0048,0.0048,0.0048,0.0048,0,-0.0763,-0.0774,-0.076,-0.077,-0.0792,-0.0743,-0.0745,-0.0702,-0.0646,-0.063,-0.0515,-0.048,-0.0332,-0.0234,-0.0139,-0.0,-0.0017,0.008,0.0104,0.0089,0.0092,0.0035,0.0033,0.0051,0.005,0.005,0.0049,0,-0.0819,-0.0807,-0.0831,-0.082,-0.0821,-0.0838,-0.0816,-0.0815,-0.0746,-0.0721,-0.07,-0.056,-0.0425,-0.0267,-0.0116,-0.0015,0.011,0.0156,0.0132,0.0153,0.0177,0.0172,0.0256,0.0258,0.026,0.0262,0.0263,0,-0.0845,-0.0865,-0.0885,-0.0913,-0.0912,-0.0925,-0.0938,-0.088,-0.0875,-0.0773,-0.0771,-0.0622,-0.052,-0.0249,-0.0031,0.0168,0.0148,0.0269,0.0257,0.0187,0.0201,0.0193,0.0186,0.0267,0.0269,0.027,0.0271,0,-0.0898,-0.0906,-0.0931,-0.1,-0.103,-0.1058,-0.1065,-0.1078,-0.1006,-0.097,-0.0896,-0.08,-0.0499,-0.0244,0.0056,0.0169,0.0245,0.0297,0.0239,0.022,0.0205,0.0216,0.0207,0.028,0.0279,0.0278,0.0278,0.0277,-0.0934,-0.0976,-0.1022,-0.1088,-0.1133,-0.1187,-0.1226,-0.1201,-0.1196,-0.1113,-0.0999,-0.0818,-0.0522,-0.0093,0.013,0.0347,0.0323,0.0372,0.0366,0.0359,0.0354,0.0344,0.0443,0.0443,0.0443,0.0443,0.0443,0,-0.0968,-0.1036,-0.1108,-0.119,-0.1253,-0.1265,-0.1313,-0.1307,-0.1302,-0.1181,-0.1068,-0.0737,-0.0403,-0.0109,0.0251,0.0455,0.0434,0.0477,0.0414,0.0405,0.0396,0.0389,0.049,0.0491,0.0491,0.0491,0,0,-0.0991,-0.107,-0.1119,-0.1265,-0.1339,-0.141,-0.1447,-0.1415,-0.1333,-0.1218,-0.1065,-0.0799,-0.0423,-0.0155,0.0125,0.0308,0.0285,0.0319,0.0262,0.0145,0.0133,0.0324,0.0303,0,0,0,0,0]}],[{"header":{"parameterUnit":"m.s-1","parameterCategory":2,"la1":30.2991,"la2":30.254,"lo1":-89.0895,"lo2":-89.0444,"dy":0.0017,"dx":0.0017,"nx":28,"ny":28,"refTime":"2024-10-14T21:00:00:Z","depth":"4","parameterNumber":2,"parameterNumberName":"U-component_of_CURRENTS"},"data":[0,0,0,0,0,0,0,0,0,0,0,0,0,0,0,0,0,0,0,0,0,0,0,0,0,0,0,0,0,0,0,0,0,0,0,0,0,0,0,0,0,0,0,0,0,0,0,0,0,0,0,0,0,0,0,0,0,0,-0.1404,-0.1405,0,-0.1444,-0.1444,-0.1444,-0.1476,-0.1476,-0.1477,-0.1477,-0.1511,-0.1511,-0.1512,0,0,0,0,0,0,0,0,0,0,0,0,0,-0.1328,-0.1329,-0.1404,-0.1405,-0.1406,-0.1444,-0.1444,-0.1445,-0.1476,-0.1476,-0.1477,-0.1477,-0.1511,-0.1511,-0.1512,0,0,0,0,0,0,0,0,0,0,0,0,0,-0.1362,-0.133,-0.1404,-0.1427,-0.143,-0.1444,-0.1444,-0.1445,-0.1476,-0.1476,-0.1477,-0.1478,-0.1511,-0.1511,-0.1512,-0.1501,0,0,-0.1514,-0.1514,0,0,0,0,0,0,0,0,-0.136,-0.1364,-0.1423,-0.1426,-0.1429,-0.1457,-0.143,-0.1464,-0.1475,-0.1456,-0.1477,-0.1478,-0.1493,-0.1495,-0.1498,-0.1503,-0.1504,-0.1514,-0.1514,-0.1515,-0.1515,0,0,0,0,0,0,0,-0.1358,-0.1363,-0.1418,-0.1424,-0.1427,-0.1426,-0.1432,-0.1436,-0.1468,-0.1458,-0.1461,-0.1468,-0.1494,-0.1498,-0.1499,-0.1505,-0.1514,-0.1514,-0.1515,-0.1515,-0.1568,-0.1569,0,0,0,0,0,0,-0.1358,-0.1361,-0.1417,-0.1419,-0.1398,-0.1427,-0.1434,-0.1446,-0.1469,-0.1473,-0.1467,-0.1469,-0.1496,-0.1499,-0.1501,-0.1551,-0.1515,-0.1515,-0.1516,-0.1567,-0.1568,-0.1569,0,0,0,0,0,0,-0.1356,-0.1362,-0.1415,-0.1392,-0.1399,-0.1428,-0.1441,-0.1446,-0.1475,-0.1476,-0.1481,-0.1494,-0.1497,-0.15,-0.1527,-0.1551,-0.1516,-0.1516,-0.1566,-0.1568,-0.1569,-0.1613,0,0,0,0,0,0,-0.1354,-0.1362,-0.1379,-0.1392,-0.14,-0.1441,-0.1441,-0.1447,-0.1477,-0.1481,-0.15,-0.1502,-0.1498,-0.1526,-0.1528,-0.1551,-0.1517,-0.1565,-0.1567,-0.1568,-0.161,-0.1616,-0.1621,0,0,0,0,0,-0.1351,-0.1369,-0.138,-0.1388,-0.1421,-0.1442,-0.1446,-0.1467,-0.1478,-0.1495,-0.1509,-0.1503,-0.1539,-0.1527,-0.1529,-0.1553,-0.1564,-0.1566,-0.1568,-0.1608,-0.1615,-0.1621,0,0,0,0,0,0,-0.1345,-0.1374,-0.1387,-0.1414,-0.1436,-0.1448,-0.1468,-0.1481,-0.1505,-0.1514,-0.1515,-0.1518,-0.1551,-0.1546,-0.1533,-0.1574,-0.1551,-0.1554,-0.1581,-0.1587,-0.1592,-0.1597,-0.1517,0,0,0,0,0,-0.1352,-0.1376,-0.1399,-0.1423,-0.1436,-0.1456,-0.1472,-0.1487,-0.1505,-0.1518,-0.1532,-0.1545,-0.1556,-0.1568,-0.1576,-0.1598,-0.1594,-0.1615,-0.162,-0.1625,-0.163,-0.1639,-0.1646,-0.1577,-0.1577,-0.1577,0,0,-0.1357,-0.1376,-0.1391,-0.1424,-0.1442,-0.1466,-0.1468,-0.1499,-0.1525,-0.1516,-0.156,-0.1565,-0.1566,-0.1592,-0.1607,-0.1595,-0.1645,-0.1627,-0.1631,-0.1634,-0.1643,-0.1649,-0.1655,-0.1579,-0.1578,-0.1578,0,0,-0.1367,-0.1396,-0.1416,-0.1439,-0.1474,-0.1487,-0.1503,-0.1532,-0.1555,-0.1588,-0.159,-0.1612,-0.1633,-0.1639,-0.1642,-0.168,-0.1671,-0.1686,-0.1718,-0.1728,-0.1733,-0.1738,-0.1751,-0.1757,-0.169,-0.169,-0.169,0,-0.1373,-0.1402,-0.1425,-0.145,-0.1474,-0.1501,-0.1528,-0.1552,-0.1589,-0.1609,-0.1611,-0.165,-0.1653,-0.168,-0.1695,-0.1692,-0.1697,-0.1693,-0.1734,-0.1739,-0.1743,-0.1755,-0.1761,-0.1692,-0.1692,-0.1692,-0.1691,0,-0.1389,-0.1425,-0.144,-0.1482,-0.1509,-0.1539,-0.1574,-0.1609,-0.1638,-0.1658,-0.1703,-0.1707,-0.1728,-0.1735,-0.1727,-0.1762,-0.1756,-0.1738,-0.1717,-0.1752,-0.1763,-0.1768,-0.1695,-0.1695,-0.1694,-0.1693,0,0,-0.1367,-0.1438,-0.1446,-0.1476,-0.1532,-0.1553,-0.1605,-0.1651,-0.169,-0.1723,-0.1766,-0.1785,-0.1792,-0.1796,-0.1793,-0.1804,-0.1839,-0.1789,-0.1789,-0.1801,-0.1869,-0.1776,-0.1772,-0.1829,-0.183,-0.1831,-0.1868,0,-0.1374,-0.1424,-0.1461,-0.1517,-0.1545,-0.1596,-0.1641,-0.1689,-0.173,-0.1779,-0.1796,-0.1832,-0.1814,-0.183,-0.1839,-0.1839,-0.1854,-0.1832,-0.1834,-0.1835,-0.1746,-0.1775,-0.1834,-0.1871,-0.1872,-0.1873,-0.1874,0,-0.1368,-0.1407,-0.1461,-0.1541,-0.156,-0.1601,-0.168,-0.1724,-0.1794,-0.1827,-0.1864,-0.1881,-0.1911,-0.1888,-0.1907,-0.1895,-0.189,-0.1886,-0.1886,-0.1786,-0.175,-0.1826,-0.1883,-0.1882,-0.1881,-0.1881,-0.188,0,-0.1323,-0.1405,-0.1451,-0.1478,-0.1569,-0.161,-0.1661,-0.1737,-0.1782,-0.186,-0.1898,-0.1931,-0.1957,-0.1954,-0.1952,-0.1933,-0.1972,-0.1938,-0.1854,-0.1848,-0.1902,-0.1896,-0.1956,-0.1956,-0.1956,-0.1956,-0.1956,0,-0.1299,-0.1339,-0.1439,-0.1463,-0.1526,-0.1596,-0.1666,-0.1724,-0.1808,-0.1858,-0.1917,-0.195,-0.1976,-0.2001,-0.198,-0.1935,-0.1994,-0.1865,-0.1849,-0.1921,-0.1917,-0.1906,-0.1899,-0.1957,-0.1957,-0.1957,-0.1956,0,-0.1234,-0.1303,-0.136,-0.1466,-0.1505,-0.1546,-0.1661,-0.1706,-0.1799,-0.1866,-0.1894,-0.1976,-0.1996,-0.202,-0.2028,-0.1963,-0.1936,-0.1911,-0.2008,-0.1997,-0.1798,-0.1794,-0.1799,-0.1796,-0.1794,-0.1792,-0.179,0,-0.1202,-0.1226,-0.1344,-0.1381,-0.1433,-0.1513,-0.1566,-0.168,-0.1725,-0.1862,-0.188,-0.1955,-0.1991,-0.193,-0.196,-0.1928,-0.1903,-0.1884,-0.1814,-0.1797,-0.1782,-0.1781,-0.178,-0.1786,-0.1785,-0.1784,-0.1784,0,-0.1134,-0.1186,-0.1233,-0.1308,-0.1374,-0.1441,-0.1526,-0.1552,-0.168,-0.1786,-0.182,-0.1834,-0.1866,-0.1858,-0.1863,-0.1833,-0.1886,-0.1857,-0.186,-0.1794,-0.178,-0.1768,-0.177,-0.1775,-0.1776,-0.1777,-0.1777,0,-0.1081,-0.1095,-0.1163,-0.1219,-0.1299,-0.134,-0.1402,-0.1462,-0.1525,-0.168,-0.1687,-0.1769,-0.1853,-0.1811,-0.1809,-0.1781,-0.1734,-0.1666,-0.1679,-0.1689,-0.1633,-0.1599,-0.1528,0,0,0,0,0,-0.102,-0.1026,-0.1069,-0.1128,-0.1203,-0.1247,-0.1362,-0.1428,-0.1559,-0.1545,-0.1613,-0.1637,-0.1641,-0.1681,-0.1622,-0.1742,-0.1734,-0.1666,-0.166,-0.1726,-0.1736,-0.1678,0,0,0,0,0,0,-0.0979,-0.1011,-0.103,-0.1037,-0.1059,-0.1129,-0.1194,-0.1288,-0.129,-0.1427,-0.1434,-0.1538,-0.1556,-0.1645,-0.1586,-0.1597,-0.1562,-0.1722,-0.1718,-0.172,-0.1729,-0.1737,-0.1682,0,0,0,0,0]},{"header":{"parameterUnit":"m.s-1","parameterCategory":2,"la1":30.2991,"la2":30.254,"lo1":-89.0895,"lo2":-89.0444,"dy":0.0017,"dx":0.0017,"nx":28,"ny":28,"refTime":"2024-10-14T21:00:00:Z","depth":"4","parameterNumber":3,"parameterNumberName":"V-component_of_CURRENTS"},"data":[0,0,0,0,0,0,0,0,0,0,0,0,0,0,0,0,0,0,0,0,0,0,0,0,0,0,0,0,0,0,0,0,0,0,0,0,0,0,0,0,0,0,0,0,0,0,0,0,0,0,0,0,0,0,0,0,0,0,-0.004,-0.0039,0,0.001,0.0011,0.0011,0.0039,0.0039,0.0039,0.0039,0.0107,0.0109,0.011,0,0,0,0,0,0,0,0,0,0,0,0,0,-0.0078,-0.0078,-0.004,-0.0039,-0.0039,0.001,0.0011,0.0011,0.0039,0.0039,0.0039,0.0039,0.0107,0.0109,0.0111,0,0,0,0,0,0,0,0,0,0,0,0,0,-0.0048,-0.0078,-0.004,-0.0019,-0.0017,0.001,0.0011,0.0011,0.0039,0.0039,0.0039,0.0039,0.0106,0.0108,0.0111,0.0124,0,0,0.0119,0.012,0,0,0,0,0,0,0,0,-0.005,-0.0047,-0.0023,-0.002,-0.0018,0.0018,0.0022,0.005,0.0039,0.0018,0.0039,0.0039,0.0079,0.0084,0.0093,0.0127,0.013,0.0119,0.0121,0.0122,0.0122,0,0,0,0,0,0,0,-0.0052,-0.0049,-0.002,-0.0022,-0.0019,-0.0001,0.0003,0.0028,0.0047,0.002,0.0022,0.0027,0.0081,0.009,0.0094,0.0131,0.0119,0.0121,0.0123,0.0124,0.0176,0.0176,0,0,0,0,0,0,-0.006,-0.0051,-0.0022,-0.0019,-0.0034,-0.0,0.0004,0.0007,0.0047,0.0053,0.0027,0.0028,0.0086,0.0091,0.0097,0.0109,0.0122,0.0124,0.0126,0.0176,0.0176,0.0176,0,0,0,0,0,0,-0.0061,-0.0058,-0.0024,-0.0033,-0.0028,-0.0,0.0003,0.0008,0.0015,0.0052,0.0059,0.0029,0.0086,0.0093,0.0115,0.0112,0.0125,0.0128,0.0177,0.0176,0.0176,0.0137,0,0,0,0,0,0,-0.0063,-0.0059,-0.0062,-0.0034,-0.0028,-0.0013,0.0003,0.0008,0.0019,0.0021,0.0056,0.0063,0.0087,0.011,0.0117,0.0116,0.013,0.0177,0.0176,0.0176,0.0139,0.0136,0.0133,0,0,0,0,0,-0.0064,-0.0069,-0.0063,-0.0059,-0.0032,-0.0013,-0.0009,0.0012,0.0018,0.0019,0.0043,0.0062,0.0113,0.0112,0.012,0.012,0.0177,0.0177,0.0176,0.014,0.0137,0.0133,0,0,0,0,0,0,-0.0086,-0.0066,-0.0059,-0.0057,-0.0039,-0.0009,-0.0007,0.0008,0.0027,0.0028,0.0062,0.007,0.0087,0.0108,0.0107,0.0134,0.0147,0.0149,0.0117,0.0114,0.0112,0.0105,0.0132,0,0,0,0,0,-0.0094,-0.0094,-0.0069,-0.0069,-0.0062,-0.0036,-0.0027,-0.0013,0.0009,0.0018,0.0044,0.0069,0.0092,0.0106,0.0129,0.0145,0.0168,0.0149,0.0147,0.0144,0.0144,0.0173,0.0173,0.0175,0.0175,0.0175,0,0,-0.0103,-0.0092,-0.0092,-0.0074,-0.006,-0.0054,-0.003,-0.0021,-0.0015,0.0023,0.0035,0.006,0.0094,0.0111,0.012,0.0128,0.0155,0.0144,0.0141,0.0142,0.0173,0.0173,0.0173,0.0175,0.0175,0.0175,0,0,-0.0122,-0.0112,-0.0119,-0.0107,-0.0089,-0.0072,-0.0072,-0.0044,-0.0031,-0.0015,0.0012,0.0035,0.0069,0.0095,0.0111,0.0107,0.0137,0.0113,0.0096,0.0125,0.0125,0.0125,0.015,0.0153,0.0113,0.0113,0.0113,0,-0.0135,-0.0139,-0.0118,-0.012,-0.0115,-0.0083,-0.0089,-0.0069,-0.0038,-0.0028,-0.0018,0.0035,0.0062,0.0089,0.0087,0.0101,0.0121,0.0105,0.0121,0.0122,0.0123,0.0148,0.0152,0.0111,0.0111,0.0111,0.0111,0,-0.0156,-0.0161,-0.0164,-0.0158,-0.0149,-0.0149,-0.012,-0.0109,-0.009,-0.0067,-0.0038,0.0002,0.0034,0.0046,0.0066,0.0087,0.01,0.0112,0.0128,0.012,0.0148,0.0152,0.0108,0.0109,0.0109,0.011,0,0,-0.018,-0.0181,-0.0183,-0.0192,-0.0172,-0.0169,-0.0157,-0.0137,-0.0132,-0.0094,-0.008,-0.0035,-0.0009,0.0011,0.0044,0.0071,0.0094,0.0091,0.0093,0.0113,0.0155,0.0162,0.0168,0.0109,0.0109,0.011,0.017,0,-0.0204,-0.0229,-0.0215,-0.0236,-0.0246,-0.0216,-0.0211,-0.0187,-0.0157,-0.0134,-0.0081,-0.0057,-0.0023,-0.001,0.0024,0.0079,0.0105,0.0077,0.0162,0.0165,0.017,0.0173,0.0112,0.0174,0.0175,0.0175,0.0176,0,-0.0226,-0.0244,-0.0273,-0.0285,-0.0286,-0.029,-0.0278,-0.0266,-0.0218,-0.0195,-0.015,-0.0106,-0.0052,-0.0029,0.0065,0.0045,0.0093,0.0136,0.0139,0.0163,0.018,0.0185,0.0185,0.0184,0.0184,0.0183,0.0182,0,-0.026,-0.0281,-0.0312,-0.0315,-0.0319,-0.0326,-0.0324,-0.0289,-0.0284,-0.0231,-0.0219,-0.0142,-0.011,-0.0031,0.0068,0.0063,0.0171,0.0176,0.0228,0.0229,0.0222,0.0221,0.0233,0.0233,0.0233,0.0232,0.0232,0,-0.0287,-0.0311,-0.0336,-0.0352,-0.039,-0.0372,-0.0393,-0.0372,-0.0344,-0.034,-0.0257,-0.023,-0.0111,-0.0028,0.0059,0.0165,0.0168,0.0227,0.0247,0.0204,0.02,0.0225,0.0224,0.0235,0.0234,0.0234,0.0233,0,-0.0311,-0.0326,-0.0367,-0.0394,-0.0408,-0.0434,-0.0453,-0.0462,-0.0425,-0.0414,-0.0401,-0.0298,-0.0192,-0.0065,0.0068,0.0144,0.025,0.0284,0.0232,0.0247,0.0289,0.0284,0.0341,0.0341,0.0342,0.0343,0.0343,0,-0.0323,-0.0347,-0.0406,-0.0443,-0.0459,-0.0498,-0.0524,-0.0508,-0.0513,-0.0452,-0.0449,-0.0345,-0.0266,-0.0067,0.0068,0.0242,0.0262,0.0322,0.0302,0.0287,0.03,0.0295,0.029,0.0344,0.0344,0.0344,0.0345,0,-0.0346,-0.037,-0.0406,-0.0489,-0.0535,-0.0584,-0.0617,-0.0626,-0.0596,-0.0566,-0.0487,-0.0364,-0.0243,-0.0078,0.0062,0.0186,0.0291,0.0329,0.0328,0.031,0.0292,0.0303,0.0298,0.0347,0.0347,0.0346,0.0346,0,-0.036,-0.0399,-0.0458,-0.0526,-0.0595,-0.0651,-0.0662,-0.0662,-0.0656,-0.0581,-0.0555,-0.0399,-0.0306,-0.0107,0.0027,0.0152,0.0173,0.0214,0.0219,0.0218,0.017,0.0129,0.0151,0,0,0,0,0,-0.037,-0.0422,-0.0493,-0.0572,-0.0642,-0.0683,-0.0716,-0.0714,-0.0685,-0.0641,-0.0596,-0.0477,-0.026,-0.0156,-0.0036,0.0025,0.0187,0.0171,0.0234,0.036,0.0357,0.0322,0,0,0,0,0,0,-0.0383,-0.0449,-0.0495,-0.0597,-0.0658,-0.0732,-0.0756,-0.0736,-0.0704,-0.0651,-0.0541,-0.0452,-0.0251,-0.0343,-0.0039,0.0003,0.0061,0.0279,0.0282,0.0361,0.0359,0.0357,0.032,0,0,0,0,0]}]]